Tracking 19920 objects as of 13-Oct-2019
HD Live streaming from Space Station
objects crossing your sky now

IRIDIUM 33 DEB

Track IRIDIUM 33 DEB now!
10-day predictions


NORAD ID: 36025
Int'l Code: 1997-051VG
Perigee: 681.0 km
Apogee: 742.5 km
Inclination: 86.6 °
Period: 98.9 minutes
Semi major axis: 7082 km
RCS: 0.0093 m2 (small)
Launch date: September 14, 1997
Source: United States (US)
Launch site: TYURATAM MISSILE AND SPACE COMPLEX (TTMTR)

Note: This is SATELLITE DEBRIS
aabbcc
Your satellite tracking list
Your tracking list is empty




NASA's NSSDC Master Catalog

Two Line Element Set (TLE):
1 36025U 97051VG  19286.49625073  .00003149  00000-0  69543-3 0  9997
2 36025  86.5606  12.0729 0043427 297.3471  62.3320 14.56461627535565
Source of the keplerian elements: AFSPC